Location: Buisson
(44.2787°N, 4.9969°E)
Time: 02:04:56
(UTC+00:00)

IRS-P3 - Pass Details

Date: 18 April 2021
Orbit: 815 x 818 km, 98.9° (Epoch: 08 May)

Event Time Altitude Azimuth Distance (km) Brightness Sun altitude
Rises 02:21:02 0° 17° (NNE) 3,358 8.3 -23.8°
Reaches altitude 10° 02:23:26 10° 21° (NNE) 2,421 7.5 -23.5°
Maximum altitude 02:28:44 61° 102° (ESE) 925 4.5 -22.8°
Enters shadow 02:31:08 32° 170° (S) 1,374 5.0 -22.5°
